TimeEDT,TemperatureF,Dew PointF,Humidity,Sea Level PressureIn,VisibilityMPH,Wind Direction,Wind SpeedMPH,Gust SpeedMPH,PrecipitationIn,Events,Conditions,WindDirDegrees,DateUTC
12:35 AM,62.4,41.2,46,30.04,10.0,SSW,10.4,-,N/A,,Unknown,200,2013-04-08 04:35:00
12:55 AM,61.7,41.4,47,30.04,10.0,SSW,10.4,-,N/A,,Unknown,210,2013-04-08 04:55:00
1:15 AM,61.3,41.4,48,30.04,10.0,SSW,8.1,-,N/A,,Unknown,200,2013-04-08 05:15:00
1:35 AM,61.2,41.5,48,30.04,10.0,SSW,6.9,-,N/A,,Unknown,200,2013-04-08 05:35:00
1:55 AM,60.3,41.5,50,30.04,10.0,SSW,4.6,-,N/A,,Unknown,200,2013-04-08 05:55:00
2:15 AM,59.4,41.9,52,30.04,10.0,SSW,6.9,-,N/A,,Unknown,210,2013-04-08 06:15:00
2:35 AM,59.0,41.9,53,30.04,10.0,SSW,5.8,-,N/A,,Unknown,200,2013-04-08 06:35:00
2:55 AM,58.5,41.9,54,30.04,10.0,SW,5.8,-,N/A,,Unknown,220,2013-04-08 06:55:00
3:15 AM,57.9,42.1,56,30.03,10.0,SW,4.6,-,N/A,,Unknown,220,2013-04-08 07:15:00
3:35 AM,57.2,41.9,57,30.04,10.0,SW,4.6,-,N/A,,Unknown,230,2013-04-08 07:35:00
3:55 AM,57.6,41.9,56,30.04,10.0,SW,4.6,-,N/A,,Unknown,220,2013-04-08 07:55:00
4:15 AM,56.5,41.9,58,30.04,10.0,Calm,Calm,-,N/A,,Unknown,0,2013-04-08 08:15:00
4:35 AM,55.9,41.9,59,30.04,10.0,SSW,4.6,-,N/A,,Unknown,200,2013-04-08 08:35:00
4:55 AM,56.3,41.9,59,30.04,10.0,SSW,3.5,-,N/A,,Unknown,200,2013-04-08 08:55:00
5:15 AM,55.9,41.9,59,30.04,10.0,South,3.5,-,N/A,,Unknown,190,2013-04-08 09:15:00
5:35 AM,55.4,41.9,60,30.04,10.0,SSW,5.8,-,N/A,,Unknown,210,2013-04-08 09:35:00
5:55 AM,55.2,42.1,61,30.04,10.0,SSW,5.8,-,N/A,,Unknown,200,2013-04-08 09:55:00
6:15 AM,55.4,42.1,61,30.05,10.0,SSW,3.5,-,N/A,,Unknown,200,2013-04-08 10:15:00
6:35 AM,54.3,42.1,63,30.06,10.0,SSW,3.5,-,N/A,,Clear,210,2013-04-08 10:35:00
6:55 AM,55.4,42.6,62,30.07,10.0,SSW,3.5,-,N/A,,Unknown,210,2013-04-08 10:55:00
7:15 AM,55.4,43.0,63,30.07,10.0,SSW,3.5,-,N/A,,Unknown,200,2013-04-08 11:15:00
7:35 AM,56.5,43.7,62,30.08,10.0,SW,4.6,-,N/A,,Unknown,220,2013-04-08 11:35:00
7:55 AM,58.5,44.2,59,30.08,10.0,SW,4.6,-,N/A,,Clear,230,2013-04-08 11:55:00
8:15 AM,59.5,44.4,57,30.08,10.0,SW,9.2,-,N/A,,Unknown,230,2013-04-08 12:15:00
8:35 AM,60.6,45.0,56,30.08,10.0,SW,3.5,-,N/A,,Unknown,230,2013-04-08 12:35:00
8:55 AM,62.2,45.7,55,30.08,10.0,WSW,6.9,-,N/A,,Unknown,240,2013-04-08 12:55:00
9:15 AM,65.1,46.6,51,30.08,10.0,SW,5.8,-,N/A,,Unknown,230,2013-04-08 13:15:00
9:35 AM,66.9,46.8,48,30.08,10.0,WSW,4.6,-,N/A,,Clear,250,2013-04-08 13:35:00
9:55 AM,68.4,46.6,46,30.08,10.0,SW,5.8,-,N/A,,Clear,230,2013-04-08 13:55:00
10:15 AM,70.0,46.6,43,30.08,10.0,SW,4.6,-,N/A,,Clear,230,2013-04-08 14:15:00
10:35 AM,71.2,46.8,42,30.08,10.0,SW,4.6,-,N/A,,Clear,220,2013-04-08 14:35:00
10:55 AM,72.9,46.4,39,30.07,10.0,South,3.5,-,N/A,,Scattered Clouds,190,2013-04-08 14:55:00
11:15 AM,75.2,46.6,36,30.07,10.0,WSW,5.8,-,N/A,,Clear,240,2013-04-08 15:15:00
11:35 AM,76.5,46.6,35,30.06,10.0,NW,4.6,-,N/A,,Clear,310,2013-04-08 15:35:00
11:55 AM,77.4,46.2,33,30.06,10.0,SW,4.6,-,N/A,,Clear,220,2013-04-08 15:55:00
12:15 PM,79.0,46.2,31,30.05,10.0,South,4.6,-,N/A,,Clear,180,2013-04-08 16:15:00
12:35 PM,79.7,46.8,31,30.04,10.0,WSW,3.5,-,N/A,,Clear,250,2013-04-08 16:35:00
12:55 PM,80.2,44.2,28,30.03,10.0,South,9.2,-,N/A,,Clear,190,2013-04-08 16:55:00
1:15 PM,80.1,43.5,27,30.02,10.0,South,8.1,-,N/A,,Clear,190,2013-04-08 17:15:00
1:35 PM,81.7,45.0,27,30.01,10.0,SW,8.1,-,N/A,,Clear,220,2013-04-08 17:35:00
1:55 PM,81.9,44.2,27,30.01,10.0,SSW,9.2,-,N/A,,Clear,210,2013-04-08 17:55:00
2:15 PM,82.2,43.9,26,30.00,10.0,SW,10.4,16.1,N/A,,Clear,220,2013-04-08 18:15:00
2:35 PM,81.1,43.3,26,29.99,10.0,West,5.8,-,N/A,,Clear,270,2013-04-08 18:35:00
2:55 PM,82.4,43.3,25,29.99,10.0,SW,9.2,19.6,N/A,,Scattered Clouds,220,2013-04-08 18:55:00
3:15 PM,82.4,43.0,25,29.98,10.0,South,10.4,20.7,N/A,,Scattered Clouds,190,2013-04-08 19:15:00
3:35 PM,82.9,44.2,26,29.97,10.0,SSW,15.0,18.4,N/A,,Scattered Clouds,210,2013-04-08 19:35:00
3:55 PM,83.5,44.8,26,29.96,10.0,South,13.8,-,N/A,,Scattered Clouds,170,2013-04-08 19:55:00
4:15 PM,82.0,43.7,26,29.96,10.0,SW,15.0,20.7,N/A,,Clear,230,2013-04-08 20:15:00
4:35 PM,82.8,44.2,26,29.96,10.0,SSW,11.5,18.4,N/A,,Scattered Clouds,210,2013-04-08 20:35:00
4:55 PM,81.1,44.1,27,29.95,10.0,SSW,9.2,-,N/A,,Mostly Cloudy,210,2013-04-08 20:55:00
5:15 PM,81.7,45.3,28,29.96,10.0,SSW,12.7,21.9,N/A,,Scattered Clouds,210,2013-04-08 21:15:00
5:35 PM,81.3,45.5,28,29.96,10.0,SSW,15.0,23.0,N/A,,Clear,200,2013-04-08 21:35:00
5:55 PM,81.0,45.7,29,29.96,10.0,SSW,13.8,19.6,N/A,,Clear,200,2013-04-08 21:55:00
6:15 PM,80.1,45.9,30,29.96,10.0,SSW,15.0,20.7,N/A,,Clear,200,2013-04-08 22:15:00
6:35 PM,79.0,46.9,32,29.96,10.0,SSW,11.5,16.1,N/A,,Clear,200,2013-04-08 22:35:00
6:55 PM,78.4,46.9,33,29.97,10.0,South,8.1,-,N/A,,Clear,190,2013-04-08 22:55:00
7:15 PM,77.0,47.5,35,29.97,10.0,South,8.1,-,N/A,,Clear,190,2013-04-08 23:15:00
7:35 PM,74.5,48.4,40,29.97,10.0,South,6.9,-,N/A,,Clear,190,2013-04-08 23:35:00
7:55 PM,73.8,48.6,41,29.98,10.0,South,6.9,-,N/A,,Clear,180,2013-04-08 23:55:00
8:15 PM,72.7,48.9,43,29.98,10.0,South,9.2,-,N/A,,Scattered Clouds,180,2013-04-09 00:15:00
8:35 PM,72.7,48.6,42,29.99,10.0,South,9.2,-,N/A,,Clear,180,2013-04-09 00:35:00
8:55 PM,73.9,48.0,40,29.99,10.0,South,10.4,16.1,N/A,,Clear,190,2013-04-09 00:55:00
9:15 PM,73.0,48.2,41,29.99,10.0,South,8.1,-,N/A,,Clear,190,2013-04-09 01:15:00
9:35 PM,72.7,48.7,43,30.00,10.0,South,11.5,-,N/A,,Clear,190,2013-04-09 01:35:00
9:55 PM,72.7,49.1,43,30.00,10.0,South,11.5,-,N/A,,Clear,190,2013-04-09 01:55:00
10:15 PM,72.3,49.6,45,30.00,10.0,South,10.4,-,N/A,,Clear,190,2013-04-09 02:15:00
10:35 PM,71.8,50.0,46,30.00,10.0,South,9.2,-,N/A,,Clear,190,2013-04-09 02:35:00
10:55 PM,71.8,50.0,46,30.00,10.0,South,9.2,-,N/A,,Clear,190,2013-04-09 02:55:00
11:35 PM,71.1,50.4,48,30.00,10.0,South,8.1,-,N/A,,Clear,190,2013-04-09 03:35:00
11:55 PM,71.4,50.4,47,29.99,10.0,SSW,12.7,17.3,N/A,,Clear,200,2013-04-09 03:55:00